カタログに戻る

STARLINK-30553

運用中通信VLEO
NORAD 58056·PAYLOAD·🇺🇸 United States

打ち上げ Oct 13, 2023 から Cape Canaveral Space Force Station

Loading…

次のパス (今後24時間)

TLE

最新Source: CelesTrak SupGP

元期: Sep 15, 2026, 03:10 UTC

1 58056C 23158F   26258.13243056 -.00014817  00000+0 -53677-3 0  2581
2 58056  43.0031  37.0446 0001740 271.7126 111.9370 15.27578807    12

AllMySatでSTARLINK-30553をリアルタイム追跡

Download on the App Store